Overview Statistics Trail Chart Weather Telemetry Raw packets
 

This is the latest recevied weather packets stored in our database for station/object WW6Q. If no packets are shown the sender has not sent any weather packets the latest 10 day(s).

<< 49 50 51 52 53 54 55 >>
Time Temp. Humidity Pressure Rain* Wind** Luminosity Snow
1788294351 31.11° C 75% 1015.3 hPa 0 mm - 302 W/m² -
1788294047 30.56° C 76% 1015.4 hPa 0 mm - 301 W/m² -
1788293743 30.56° C 72% 1015.6 hPa 0 mm - 275 W/m² -
1788293442 31.11° C 72% 1015.9 hPa 0 mm - 256 W/m² -
1788293141 30.56° C 73% 1015.8 hPa 0 mm - 279 W/m² -
1788292842 30° C 75% 1015.8 hPa 0 mm - 225 W/m² -
1788292539 30° C 75% 1015.7 hPa 0 mm - 188 W/m² -
1788292234 30° C 76% 1015.7 hPa 0 mm - 182 W/m² -
1788291929 30° C 74% 1015.7 hPa 0 mm - 237 W/m² -
1788291624 30.56° C 72% 1015.8 hPa 0 mm - 302 W/m² -
1788291324 30° C 74% 1015.7 hPa 0 mm - 779 W/m² -
1788291019 30° C 74% 1015.8 hPa 0 mm - 313 W/m² -
1788290714 29.44° C 77% 1015.7 hPa 0 mm - 338 W/m² -
1788290410 28.89° C 77% 1015.9 hPa 0 mm - 506 W/m² -
1788290106 28.89° C 78% 1015.8 hPa 0 mm - 161 W/m² -
1788289801 28.89° C 76% 1016 hPa 0 mm - 143 W/m² -
1788289506 28.89° C 75% 1015.9 hPa 0 mm - 99 W/m² -
1788289195 29.44° C 75% 1016 hPa 0 mm - 133 W/m² -
1788288889 29.44° C 73% 1016 hPa 0 mm - 318 W/m² -
1788288589 28.89° C 74% 1016.3 hPa 0 mm - 313 W/m² -
1788288284 28.89° C 77% 1016.1 hPa 0 mm - 258 W/m² -
1788287979 28.33° C 76% 1016 hPa 0 mm - 252 W/m² -
1788287679 28.33° C 75% 1015.8 hPa 0 mm - 129 W/m² -
1788287375 28.89° C 74% 1016 hPa 0 mm - 79 W/m² -
1788287071 28.89° C 74% 1015.8 hPa 0 mm - 190 W/m² -

* Rain latest hour (hover to see other rain measurements)
** Current wind speed in m/s (hover to see current wind gust speed)